Location: Newark
(51.5114°N, 0.0848°W)
Time: 10:05:37
(UTC+00:00)

N. Korean satellite - Pass Details

Date: 26 October 2019
Orbit: 456 x 506 km, 97.2° (Epoch: 19 November)

Event Time Altitude Azimuth Distance (km) Brightness Sun altitude
Rises 17:34:38 0° 189° (S) 2,475 10.4 -8.3°
Reaches altitude 10° 17:36:49 10° 201° (SSW) 1,611 9.6 -8.6°
Maximum altitude 17:39:55 30° 264° (W) 862 8.8 -9.1°
Drops below altitude 10° 17:43:05 10° 328° (NNW) 1,645 9.6 -9.6°
Sets 17:45:20 0° 339° (NNW) 2,538 10.4 -9.9°
